TimeCDT,TemperatureF,Dew PointF,Humidity,Sea Level PressureIn,VisibilityMPH,Wind Direction,Wind SpeedMPH,Gust SpeedMPH,PrecipitationIn,Events,Conditions,WindDirDegrees,DateUTC
12:53 AM,73.9,71.1,91,29.93,8.0,Calm,Calm,-,N/A,,Scattered Clouds,0,2013-07-28 05:53:00
1:53 AM,73.0,71.1,93,29.93,6.0,SSW,4.6,-,N/A,,Clear,200,2013-07-28 06:53:00
2:53 AM,72.0,70.0,93,29.93,6.0,Calm,Calm,-,N/A,,Clear,0,2013-07-28 07:53:00
3:53 AM,72.0,70.0,93,29.94,6.0,Calm,Calm,-,N/A,,Mostly Cloudy,0,2013-07-28 08:53:00
4:53 AM,73.0,71.1,93,29.95,7.0,Calm,Calm,-,N/A,,Overcast,0,2013-07-28 09:53:00
5:23 AM,71.6,69.8,94,29.97,6.0,Calm,Calm,-,N/A,,Mostly Cloudy,0,2013-07-28 10:23:00
5:53 AM,72.0,70.0,93,29.96,6.0,Calm,Calm,-,N/A,,Clear,0,2013-07-28 10:53:00
6:53 AM,73.0,70.0,90,29.96,7.0,North,3.5,-,N/A,,Clear,10,2013-07-28 11:53:00
7:53 AM,77.0,71.1,82,29.97,9.0,NNE,4.6,-,N/A,,Clear,30,2013-07-28 12:53:00
8:53 AM,80.1,72.0,76,29.98,10.0,NE,3.5,-,N/A,,Clear,50,2013-07-28 13:53:00
9:53 AM,82.9,72.0,69,29.99,10.0,Variable,3.5,-,N/A,,Clear,0,2013-07-28 14:53:00
10:53 AM,82.9,71.1,67,29.99,9.0,NE,4.6,-,N/A,,Clear,40,2013-07-28 15:53:00
11:53 AM,86.0,72.0,63,29.99,8.0,NE,3.5,-,N/A,,Partly Cloudy,50,2013-07-28 16:53:00
12:53 PM,87.1,72.0,61,29.99,10.0,Variable,5.8,-,N/A,,Partly Cloudy,0,2013-07-28 17:53:00
1:53 PM,89.1,71.1,55,29.98,10.0,Calm,Calm,-,N/A,,Clear,0,2013-07-28 18:53:00
2:53 PM,87.1,71.1,59,29.97,10.0,North,4.6,-,N/A,,Partly Cloudy,10,2013-07-28 19:53:00
3:53 PM,89.1,70.0,53,29.96,10.0,North,5.8,-,N/A,,Partly Cloudy,350,2013-07-28 20:53:00
4:53 PM,89.1,71.1,55,29.96,10.0,NW,6.9,-,N/A,,Clear,310,2013-07-28 21:53:00
5:53 PM,89.1,70.0,53,29.97,10.0,NNW,4.6,-,N/A,,Clear,340,2013-07-28 22:53:00
6:53 PM,86.0,71.1,61,29.98,10.0,NNW,4.6,-,N/A,,Clear,340,2013-07-28 23:53:00
7:53 PM,82.9,73.0,72,29.99,10.0,North,4.6,-,N/A,,Clear,360,2013-07-29 00:53:00
8:53 PM,80.1,73.0,79,30.00,10.0,North,3.5,-,N/A,,Clear,10,2013-07-29 01:53:00
9:53 PM,78.1,73.9,87,30.02,9.0,Calm,Calm,-,N/A,,Clear,0,2013-07-29 02:53:00
10:53 PM,78.1,72.0,81,30.03,10.0,NNE,6.9,-,N/A,,Clear,20,2013-07-29 03:53:00
11:53 PM,75.9,71.1,85,30.05,10.0,Calm,Calm,-,N/A,,Clear,0,2013-07-29 04:53:00